Location: Newark
(22.3060°N, 114.2134°E)
Time: 19:22:56
(UTC+00:00)

Explorer 11/Cluster Stage 4 - Pass Details

Date: 04 August 2021
Orbit: 467 x 1256 km, 28.8° (Epoch: 27 September)

Event Time Altitude Azimuth Distance (km) Brightness Sun altitude
Rises 07:58:44 0° 268° (W) 3,966 11.0 40.7°
Reaches altitude 10° 08:03:33 10° 243° (WSW) 2,833 10.3 39.6°
Maximum altitude 08:06:24 13° 218° (SW) 2,510 9.7 38.9°
Drops below altitude 10° 08:09:04 10° 193° (SSW) 2,590 9.4 38.3°
Sets 08:13:04 0° 165° (SSE) 3,325 9.6 37.4°
